,,Stat5,,Stat1,,Stat2,,Stat3,,Stat4,,Wind1,,Wind1,
time,status,PA1M_AVG,status,PR1M_SUM,status,RH1M_AVG,status,SR1M_AVG,status,TA1M_AVG,status,W1dAve1m,status,W1sAve1m,
2002-04-06, 00:00:00,VALID,918.526,VALID,0,VALID,96.1829,VALID,-0.118866,VALID,21.3654,VALID,320,VALID,0.611378,
2002-04-06, 00:01:00,VALID,918.524,VALID,0,VALID,96.1638,VALID,-0.101885,VALID,21.3584,VALID,32,VALID,1.14379,
2002-04-06, 00:02:00,VALID,918.482,VALID,0,VALID,96.1626,VALID,-0.101885,VALID,21.3683,VALID,344,VALID,0.652561,
2002-04-06, 00:03:00,VALID,918.491,VALID,0,VALID,96.1982,VALID,-0.101885,VALID,21.4015,VALID,64,VALID,0.0916941,
2002-04-06, 00:04:00,VALID,918.482,VALID,0,VALID,96.1333,VALID,-0.0849042,VALID,21.4138,VALID,67,VALID,0.151693,
2002-04-06, 00:05:00,VALID,918.483,VALID,0,VALID,96.0863,VALID,-0.101885,VALID,21.4101,VALID,29,VALID,0.138775,
2002-04-06, 00:06:00,VALID,918.51,VALID,0,VALID,96.0443,VALID,-0.101885,VALID,21.4066,VALID,28,VALID,0.509502,
2002-04-06, 00:07:00,VALID,918.51,VALID,0,VALID,96.0723,VALID,0,VALID,21.4257,VALID,25,VALID,0.614732,
2002-04-06, 00:08:00,VALID,918.521,VALID,0,VALID,96.0583,VALID,-0.0169808,VALID,21.4319,VALID,19,VALID,0.320313,
2002-04-06, 00:09:00,VALID,918.516,VALID,0,VALID,96.0608,VALID,-0.0169808,VALID,21.4252,VALID,22,VALID,0.414536,
2002-04-06, 00:10:00,VALID,918.508,VALID,0,VALID,96.1028,VALID,0,VALID,21.4319,VALID,22,VALID,0.234152,
2002-04-06, 00:11:00,VALID,918.494,VALID,0,VALID,96.0748,VALID,0,VALID,21.4354,VALID,22,VALID,0.0320946,
2002-04-06, 00:12:00,VALID,918.426,VALID,0,VALID,96.0049,VALID,0,VALID,21.4157,VALID,33,VALID,0.0924831,
2002-04-06, 00:13:00,VALID,918.426,VALID,0,VALID,96.0112,VALID,0,VALID,21.4128,VALID,33,VALID,0.128084,
2002-04-06, 00:14:00,VALID,918.385,VALID,0,VALID,95.9985,VALID,0,VALID,21.4163,VALID,33,VALID,0.031467,
2002-04-06, 00:15:00,VALID,918.353,VALID,0,VALID,95.9705,VALID,-0.0339617,VALID,21.3934,VALID,33,VALID,0.00123355,
2002-04-06, 00:16:00,VALID,918.289,VALID,0,VALID,95.9019,VALID,-0.0339617,VALID,21.367,VALID,27,VALID,0.222762,
2002-04-06, 00:17:00,VALID,918.246,VALID,0,VALID,95.8828,VALID,-0.0169808,VALID,21.3611,VALID,7,VALID,0.832031,
2002-04-06, 00:18:00,VALID,918.211,VALID,0,VALID,95.893,VALID,0,VALID,21.3411,VALID,42,VALID,0.127878,
2002-04-06, 00:19:00,VALID,918.17,VALID,0,VALID,95.8981,VALID,-0.0339617,VALID,21.3379,VALID,3,VALID,0.250633,
2002-04-06, 00:20:00,VALID,918.127,VALID,0,VALID,95.9388,VALID,-0.0169808,VALID,21.3156,VALID,247,VALID,0.292969,
2002-04-06, 00:21:00,VALID,918.087,VALID,0,VALID,95.968,VALID,-0.0169808,VALID,21.2927,VALID,238,VALID,0.209037,
2002-04-06, 00:22:00,VALID,918.03,VALID,0,VALID,96.0697,VALID,0,VALID,21.2865,VALID,241,VALID,0.0654018,
2002-04-06, 00:23:00,VALID,918.005,VALID,0,VALID,96.1689,VALID,0,VALID,21.2894,VALID,298,VALID,0.205529,
2002-04-06, 00:24:00,VALID,917.987,VALID,0,VALID,96.1282,VALID,0,VALID,21.2902,VALID,3,VALID,0.314867,
2002-04-06, 00:25:00,VALID,917.984,VALID,0,VALID,96.0875,VALID,0,VALID,21.2735,VALID,10,VALID,0.957366,
2002-04-06, 00:26:00,VALID,917.971,VALID,0,VALID,96.0481,VALID,-0.0339617,VALID,21.245,VALID,2,VALID,0.893159,
2002-04-06, 00:27:00,VALID,917.967,VALID,0,VALID,96.1257,VALID,0,VALID,21.235,VALID,15,VALID,1.20608,
2002-04-06, 00:28:00,VALID,917.97,VALID,0,VALID,96.132,VALID,0,VALID,21.2089,VALID,12,VALID,1.63137,
2002-04-06, 00:29:00,VALID,917.938,VALID,0,VALID,96.235,VALID,0,VALID,21.1998,VALID,14,VALID,1.29709,
2002-04-06, 00:30:00,VALID,917.936,VALID,0,VALID,96.2973,VALID,0,VALID,21.1699,VALID,1,VALID,1.60567,
2002-04-06, 00:31:00,VALID,917.905,VALID,0,VALID,96.4766,VALID,-0.0169808,VALID,21.1804,VALID,360,VALID,1.06419,
2002-04-06, 00:32:00,VALID,917.883,VALID,0,VALID,96.6559,VALID,-0.0339617,VALID,21.1731,VALID,10,VALID,0.907399,
2002-04-06, 00:33:00,VALID,917.865,VALID,0,VALID,96.6788,VALID,-0.0169808,VALID,21.1798,VALID,16,VALID,1.07813,
2002-04-06, 00:34:00,VALID,917.852,VALID,0,VALID,96.6076,VALID,-0.0339617,VALID,21.1604,VALID,357,VALID,0.820524,
2002-04-06, 00:35:00,VALID,917.856,VALID,0,VALID,96.6216,VALID,0,VALID,21.1578,VALID,14,VALID,1.12048,
2002-04-06, 00:36:00,VALID,917.858,VALID,0,VALID,96.6572,VALID,0,VALID,21.1314,VALID,7,VALID,1.02111,
2002-04-06, 00:37:00,VALID,917.862,VALID,0,VALID,96.7233,VALID,0,VALID,21.1117,VALID,356,VALID,0.899107,
2002-04-06, 00:38:00,VALID,917.864,VALID,0,VALID,96.75,VALID,-0.0169808,VALID,21.0956,VALID,358,VALID,0.463742,
2002-04-06, 00:39:00,VALID,917.883,VALID,0,VALID,96.8123,VALID,0,VALID,21.0991,VALID,358,VALID,0.222301,
2002-04-06, 00:40:00,VALID,917.856,VALID,0,VALID,96.8836,VALID,-0.0169808,VALID,21.1125,VALID,7,VALID,0.441964,
2002-04-06, 00:41:00,VALID,917.832,VALID,0,VALID,96.8823,VALID,0,VALID,21.1152,VALID,5,VALID,0.642736,
2002-04-06, 00:42:00,VALID,917.808,VALID,0,VALID,96.8543,VALID,0.0169808,VALID,21.1311,VALID,352,VALID,0.429688,
2002-04-06, 00:43:00,VALID,917.778,VALID,0,VALID,96.8136,VALID,0,VALID,21.108,VALID,13,VALID,0.615337,
2002-04-06, 00:44:00,VALID,917.733,VALID,0,VALID,96.8111,VALID,0,VALID,21.1349,VALID,17,VALID,0.676866,
2002-04-06, 00:45:00,VALID,917.703,VALID,0,VALID,96.853,VALID,0.0169808,VALID,21.1446,VALID,14,VALID,0.56949,
2002-04-06, 00:46:00,VALID,917.678,VALID,0,VALID,96.8759,VALID,0,VALID,21.151,VALID,16,VALID,0.505912,
2002-04-06, 00:47:00,VALID,917.66,VALID,0,VALID,96.8785,VALID,0,VALID,21.1597,VALID,18,VALID,0.258961,
2002-04-06, 00:48:00,VALID,917.651,VALID,0,VALID,96.8568,VALID,0,VALID,21.1736,VALID,18,VALID,0.163446,
2002-04-06, 00:49:00,VALID,917.65,VALID,0,VALID,96.8568,VALID,0,VALID,21.1828,VALID,18,VALID,0.0118243,
2002-04-06, 00:50:00,VALID,917.647,VALID,0,VALID,96.8657,VALID,0,VALID,21.1992,VALID,18,VALID,0,
2002-04-06, 00:51:00,VALID,917.665,VALID,0,VALID,96.8378,VALID,0,VALID,21.1955,VALID,18,VALID,0.172931,
2002-04-06, 00:52:00,VALID,917.684,VALID,0,VALID,96.8085,VALID,0.0169808,VALID,21.2124,VALID,19,VALID,0.280804,
2002-04-06, 00:53:00,VALID,917.698,VALID,0,VALID,96.7996,VALID,0,VALID,21.2119,VALID,19,VALID,0.411659,
2002-04-06, 00:54:00,VALID,917.7,VALID,0,VALID,96.8022,VALID,0,VALID,21.221,VALID,23,VALID,0.710464,
2002-04-06, 00:55:00,VALID,917.694,VALID,0,VALID,96.6788,VALID,0,VALID,21.2186,VALID,31,VALID,0.899777,
2002-04-06, 00:56:00,VALID,917.695,VALID,0,VALID,96.4957,VALID,0,VALID,21.196,VALID,33,VALID,0.8731,
2002-04-06, 00:57:00,VALID,917.702,VALID,0,VALID,96.4169,VALID,0,VALID,21.154,VALID,23,VALID,0.851563,
2002-04-06, 00:58:00,VALID,917.725,VALID,0,VALID,96.3991,VALID,0,VALID,21.1349,VALID,28,VALID,0.741571,
2002-04-06, 00:59:00,VALID,917.75,VALID,0,VALID,96.3609,VALID,-0.0169808,VALID,21.1058,VALID,34,VALID,0.933377,
2002-04-06, 01:00:00,VALID,917.787,VALID,0,VALID,96.4283,VALID,0,VALID,21.0597,VALID,29,VALID,0.618421,
2002-04-06, 01:01:00,VALID,917.827,VALID,0,VALID,96.5491,VALID,0,VALID,21.0667,VALID,26,VALID,0.261191,
2002-04-06, 01:02:00,VALID,917.836,VALID,0,VALID,96.5809,VALID,0,VALID,21.0474,VALID,31,VALID,0.295956,
2002-04-06, 01:03:00,VALID,917.844,VALID,0,VALID,96.5962,VALID,0,VALID,21.0479,VALID,33,VALID,0.398849,
2002-04-06, 01:04:00,VALID,917.842,VALID,0,VALID,96.5822,VALID,0,VALID,21.0242,VALID,39,VALID,0.451014,
2002-04-06, 01:05:00,VALID,917.807,VALID,0,VALID,96.5618,VALID,0,VALID,21.0118,VALID,34,VALID,0.337582,
2002-04-06, 01:06:00,VALID,917.777,VALID,0,VALID,96.5873,VALID,0,VALID,21.0019,VALID,43,VALID,0.441934,
2002-04-06, 01:07:00,VALID,917.737,VALID,0,VALID,96.5542,VALID,0,VALID,20.9889,VALID,44,VALID,0.272991,
2002-04-06, 01:08:00,VALID,917.694,VALID,0,VALID,96.5377,VALID,-0.0339617,VALID,20.9927,VALID,44,VALID,0.174479,
2002-04-06, 01:09:00,VALID,917.674,VALID,0,VALID,96.5351,VALID,0,VALID,20.983,VALID,44,VALID,0.12642,
2002-04-06, 01:10:00,VALID,917.685,VALID,0,VALID,96.5224,VALID,-0.0169808,VALID,20.9798,VALID,44,VALID,0.24375,
2002-04-06, 01:11:00,VALID,917.687,VALID,0,VALID,96.4932,VALID,0,VALID,20.9733,VALID,44,VALID,0,
2002-04-06, 01:12:00,VALID,917.686,VALID,0,VALID,96.511,VALID,0,VALID,20.9631,VALID,44,VALID,0,
2002-04-06, 01:13:00,VALID,917.69,VALID,0,VALID,96.5364,VALID,-0.0169808,VALID,20.9496,VALID,45,VALID,0,
2002-04-06, 01:14:00,VALID,917.698,VALID,0,VALID,96.5453,VALID,0.0169808,VALID,20.9668,VALID,45,VALID,0.0115017,
2002-04-06, 01:15:00,VALID,917.701,VALID,0,VALID,96.5389,VALID,0,VALID,20.9604,VALID,45,VALID,0.00205592,
2002-04-06, 01:16:00,VALID,917.695,VALID,0,VALID,96.5453,VALID,0.0169808,VALID,20.9636,VALID,45,VALID,0,
2002-04-06, 01:17:00,VALID,917.684,VALID,0,VALID,96.5669,VALID,0,VALID,20.9706,VALID,45,VALID,0.000229779,
2002-04-06, 01:18:00,VALID,917.695,VALID,0,VALID,96.544,VALID,0,VALID,20.9507,VALID,45,VALID,0.000822368,
2002-04-06, 01:19:00,VALID,917.696,VALID,0,VALID,96.5033,VALID,0,VALID,20.9475,VALID,46,VALID,0.0143581,
2002-04-06, 01:20:00,VALID,917.703,VALID,0,VALID,96.4563,VALID,0,VALID,20.9348,VALID,156,VALID,0.392475,
2002-04-06, 01:21:00,VALID,917.703,VALID,0,VALID,96.455,VALID,0,VALID,20.9216,VALID,180,VALID,0.323902,
2002-04-06, 01:22:00,VALID,917.711,VALID,0,VALID,96.4754,VALID,0,VALID,20.9189,VALID,193,VALID,0.310714,
2002-04-06, 01:23:00,VALID,917.704,VALID,0,VALID,96.5491,VALID,-0.0169808,VALID,20.9084,VALID,194,VALID,0.170272,
2002-04-06, 01:24:00,VALID,917.686,VALID,0,VALID,96.5707,VALID,0,VALID,20.9219,VALID,194,VALID,0.024858,
2002-04-06, 01:25:00,VALID,917.67,VALID,0,VALID,96.5199,VALID,0,VALID,20.8993,VALID,194,VALID,0,
2002-04-06, 01:26:00,VALID,917.645,VALID,0,VALID,96.4639,VALID,0,VALID,20.889,VALID,194,VALID,0.161318,
2002-04-06, 01:27:00,VALID,917.622,VALID,0,VALID,96.4334,VALID,0.101885,VALID,20.8751,VALID,194,VALID,0.220861,
2002-04-06, 01:28:00,VALID,917.598,VALID,0,VALID,96.4169,VALID,0.101885,VALID,20.8619,VALID,172,VALID,0.303043,
2002-04-06, 01:29:00,VALID,917.599,VALID,0,VALID,96.3507,VALID,0.101885,VALID,20.8425,VALID,94,VALID,0.0494792,
2002-04-06, 01:30:00,VALID,917.612,VALID,0,VALID,96.3724,VALID,0.101885,VALID,20.8323,VALID,94,VALID,0.0785362,
2002-04-06, 01:31:00,VALID,917.622,VALID,0,VALID,96.3495,VALID,0.118866,VALID,20.8064,VALID,94,VALID,0.225507,
2002-04-06, 01:32:00,VALID,917.643,VALID,0,VALID,96.4601,VALID,0.101885,VALID,20.7975,VALID,95,VALID,0.235983,
2002-04-06, 01:33:00,VALID,917.643,VALID,0,VALID,96.5847,VALID,0.101885,VALID,20.8005,VALID,137,VALID,0.490132,
2002-04-06, 01:34:00,VALID,917.636,VALID,0,VALID,96.6318,VALID,0.101885,VALID,20.7811,VALID,145,VALID,0.516258,
2002-04-06, 01:35:00,VALID,917.618,VALID,0,VALID,96.6865,VALID,0.0849042,VALID,20.7652,VALID,147,VALID,0.431538,
2002-04-06, 01:36:00,VALID,917.605,VALID,0,VALID,96.7653,VALID,0.101885,VALID,20.762,VALID,147,VALID,0.0863598,
2002-04-06, 01:37:00,VALID,917.586,VALID,0,VALID,96.8238,VALID,0.101885,VALID,20.7491,VALID,147,VALID,0.0464286,
2002-04-06, 01:38:00,VALID,917.583,VALID,0,VALID,96.8327,VALID,0.101885,VALID,20.7361,VALID,145,VALID,0.140825,
2002-04-06, 01:39:00,VALID,917.569,VALID,0,VALID,96.7144,VALID,0.0849042,VALID,20.7033,VALID,51,VALID,0.272254,
2002-04-06, 01:40:00,VALID,917.564,VALID,0,VALID,96.7322,VALID,0.0849042,VALID,20.6817,VALID,42,VALID,0.208929,
2002-04-06, 01:41:00,VALID,917.545,VALID,0,VALID,96.8378,VALID,0.101885,VALID,20.6653,VALID,41,VALID,0.335515,
2002-04-06, 01:42:00,VALID,917.536,VALID,0,VALID,96.9039,VALID,0.0169808,VALID,20.6698,VALID,40,VALID,0.370988,
2002-04-06, 01:43:00,VALID,917.525,VALID,0,VALID,96.8301,VALID,0,VALID,20.647,VALID,40,VALID,0.275288,
2002-04-06, 01:44:00,VALID,917.481,VALID,0,VALID,96.7729,VALID,0,VALID,20.6211,VALID,40,VALID,0.00260417,
2002-04-06, 01:45:00,VALID,917.474,VALID,0,VALID,96.7958,VALID,0,VALID,20.6149,VALID,40,VALID,0,
2002-04-06, 01:46:00,VALID,917.459,VALID,0,VALID,96.834,VALID,0.0169808,VALID,20.5856,VALID,40,VALID,0,
2002-04-06, 01:47:00,VALID,917.429,VALID,0,VALID,96.9459,VALID,-0.0339617,VALID,20.5955,VALID,40,VALID,0,
2002-04-06, 01:48:00,VALID,917.425,VALID,0,VALID,97.0171,VALID,0,VALID,20.6025,VALID,40,VALID,0,
2002-04-06, 01:49:00,VALID,917.428,VALID,0,VALID,97.0934,VALID,0,VALID,20.6154,VALID,40,VALID,0,
2002-04-06, 01:50:00,VALID,917.429,VALID,0,VALID,97.0692,VALID,-0.0169808,VALID,20.6052,VALID,40,VALID,0,
2002-04-06, 01:51:00,VALID,917.417,VALID,0,VALID,97.0603,VALID,0,VALID,20.605,VALID,40,VALID,0,
2002-04-06, 01:52:00,VALID,917.419,VALID,0,VALID,97.0387,VALID,0.0169808,VALID,20.6154,VALID,40,VALID,0,
2002-04-06, 01:53:00,VALID,917.409,VALID,0,VALID,96.9738,VALID,0,VALID,20.5996,VALID,40,VALID,0,
2002-04-06, 01:54:00,VALID,917.398,VALID,0,VALID,96.9382,VALID,0.0169808,VALID,20.5694,VALID,40,VALID,0,
2002-04-06, 01:55:00,VALID,917.389,VALID,0,VALID,96.867,VALID,0,VALID,20.5535,VALID,40,VALID,0,
2002-04-06, 01:56:00,VALID,917.371,VALID,0,VALID,96.8518,VALID,0,VALID,20.5406,VALID,40,VALID,0,
2002-04-06, 01:57:00,VALID,917.357,VALID,0,VALID,96.9281,VALID,0,VALID,20.5307,VALID,40,VALID,0,
2002-04-06, 01:58:00,VALID,917.341,VALID,0,VALID,97.1213,VALID,0.0679233,VALID,20.5565,VALID,40,VALID,0,
2002-04-06, 01:59:00,VALID,917.318,VALID,0,VALID,97.2383,VALID,0.0339617,VALID,20.5893,VALID,40,VALID,0,
2002-04-06, 02:00:00,VALID,917.317,VALID,0,VALID,97.2828,VALID,0.0169808,VALID,20.6017,VALID,40,VALID,0,
2002-04-06, 02:01:00,VALID,917.319,VALID,0,VALID,97.2409,VALID,0,VALID,20.5955,VALID,40,VALID,0,
2002-04-06, 02:02:00,VALID,917.329,VALID,0,VALID,97.1582,VALID,0,VALID,20.5926,VALID,40,VALID,0,
2002-04-06, 02:03:00,VALID,917.326,VALID,0,VALID,96.9586,VALID,0,VALID,20.5637,VALID,40,VALID,0,
2002-04-06, 02:04:00,VALID,917.32,VALID,0,VALID,96.8022,VALID,0.0169808,VALID,20.4986,VALID,40,VALID,0,
2002-04-06, 02:05:00,VALID,917.308,VALID,0,VALID,96.7182,VALID,0,VALID,20.4601,VALID,40,VALID,0,
2002-04-06, 02:06:00,VALID,917.305,VALID,0,VALID,96.7157,VALID,0,VALID,20.4343,VALID,40,VALID,0.128167,
2002-04-06, 02:07:00,VALID,917.314,VALID,0,VALID,96.7755,VALID,0,VALID,20.4052,VALID,40,VALID,0.227232,
2002-04-06, 02:08:00,VALID,917.303,VALID,0,VALID,96.9153,VALID,0,VALID,20.4054,VALID,39,VALID,0.264824,
2002-04-06, 02:09:00,VALID,917.289,VALID,0,VALID,97.2167,VALID,0,VALID,20.4405,VALID,34,VALID,0.211411,
2002-04-06, 02:10:00,VALID,917.279,VALID,0,VALID,97.2917,VALID,0.0169808,VALID,20.4566,VALID,33,VALID,0.0540179,
2002-04-06, 02:11:00,VALID,917.25,VALID,0,VALID,97.2154,VALID,0,VALID,20.4504,VALID,33,VALID,0.209248,
2002-04-06, 02:12:00,VALID,917.245,VALID,0,VALID,97.0527,VALID,0.0169808,VALID,20.4281,VALID,33,VALID,0.186655,
2002-04-06, 02:13:00,VALID,917.227,VALID,0,VALID,97.0514,VALID,0,VALID,20.3963,VALID,33,VALID,0.171875,
2002-04-06, 02:14:00,VALID,917.224,VALID,0,VALID,97.0857,VALID,0,VALID,20.3764,VALID,33,VALID,0.274523,
2002-04-06, 02:15:00,VALID,917.234,VALID,0,VALID,97.0705,VALID,0,VALID,20.3538,VALID,33,VALID,0.253289,
2002-04-06, 02:16:00,VALID,917.217,VALID,0,VALID,97.0934,VALID,0.0169808,VALID,20.3344,VALID,33,VALID,0.193623,
2002-04-06, 02:17:00,VALID,917.207,VALID,0,VALID,97.1697,VALID,0.0169808,VALID,20.3145,VALID,33,VALID,0.160846,
2002-04-06, 02:18:00,VALID,917.185,VALID,0,VALID,97.1798,VALID,0,VALID,20.312,VALID,33,VALID,0.214638,
2002-04-06, 02:19:00,VALID,917.174,VALID,0,VALID,97.1468,VALID,0,VALID,20.3055,VALID,33,VALID,0.563345,
2002-04-06, 02:20:00,VALID,917.124,VALID,0,VALID,97.087,VALID,0,VALID,20.2765,VALID,28,VALID,0.983141,
2002-04-06, 02:21:00,VALID,917.093,VALID,0,VALID,97.3693,VALID,0,VALID,20.2993,VALID,20,VALID,1.06949,
2002-04-06, 02:22:00,VALID,917.066,VALID,0,VALID,97.4532,VALID,0.0169808,VALID,20.309,VALID,16,VALID,0.9625,
2002-04-06, 02:23:00,VALID,917.047,VALID,0,VALID,97.6363,VALID,0,VALID,20.3145,VALID,8,VALID,0.879207,
2002-04-06, 02:24:00,VALID,917.023,VALID,0,VALID,97.7788,VALID,0.0169808,VALID,20.3543,VALID,2,VALID,0.664773,
2002-04-06, 02:25:00,VALID,917.021,VALID,0,VALID,97.8868,VALID,0,VALID,20.3532,VALID,342,VALID,0.671875,
2002-04-06, 02:26:00,VALID,916.99,VALID,0,VALID,97.9835,VALID,-0.0169808,VALID,20.3858,VALID,344,VALID,0.552787,
2002-04-06, 02:27:00,VALID,916.969,VALID,0,VALID,98.0433,VALID,0.0169808,VALID,20.399,VALID,346,VALID,0.514147,
2002-04-06, 02:28:00,VALID,916.935,VALID,0,VALID,98.1196,VALID,0.0169808,VALID,20.4052,VALID,353,VALID,0.352796,
2002-04-06, 02:29:00,VALID,916.881,VALID,0,VALID,98.1869,VALID,0.0339617,VALID,20.4313,VALID,3,VALID,0.174913,
2002-04-06, 02:30:00,VALID,916.855,VALID,0,VALID,98.1958,VALID,0.0169808,VALID,20.4243,VALID,11,VALID,0.113076,
2002-04-06, 02:31:00,VALID,916.836,VALID,0,VALID,98.2264,VALID,0,VALID,20.4308,VALID,11,VALID,0.0990287,
2002-04-06, 02:32:00,VALID,916.828,VALID,0,VALID,98.2162,VALID,0,VALID,20.4313,VALID,11,VALID,0.21898,
2002-04-06, 02:33:00,VALID,916.827,VALID,0,VALID,98.2035,VALID,0,VALID,20.435,VALID,12,VALID,0.176398,
2002-04-06, 02:34:00,VALID,916.822,VALID,0,VALID,98.2289,VALID,-0.0169808,VALID,20.4151,VALID,31,VALID,0.328547,
2002-04-06, 02:35:00,VALID,916.825,VALID,0,VALID,98.2429,VALID,0.0339617,VALID,20.4221,VALID,46,VALID,0.399054,
2002-04-06, 02:36:00,VALID,916.833,VALID,0,VALID,98.2569,VALID,0,VALID,20.4049,VALID,47,VALID,0.406883,
2002-04-06, 02:37:00,VALID,916.846,VALID,0,VALID,98.2442,VALID,0.0169808,VALID,20.4057,VALID,47,VALID,0.210045,
2002-04-06, 02:38:00,VALID,916.867,VALID,0,VALID,98.2302,VALID,0,VALID,20.393,VALID,47,VALID,0.143229,
2002-04-06, 02:39:00,VALID,916.879,VALID,0,VALID,98.2505,VALID,0.0169808,VALID,20.3699,VALID,47,VALID,0.16572,
2002-04-06, 02:40:00,VALID,916.883,VALID,0,VALID,98.295,VALID,0,VALID,20.3667,VALID,47,VALID,0.219866,
2002-04-06, 02:41:00,VALID,916.881,VALID,0,VALID,98.3052,VALID,0,VALID,20.364,VALID,47,VALID,0.239231,
2002-04-06, 02:42:00,VALID,916.867,VALID,0,VALID,98.3268,VALID,0,VALID,20.3538,VALID,45,VALID,0.132601,
2002-04-06, 02:43:00,VALID,916.839,VALID,0,VALID,98.3192,VALID,0,VALID,20.3577,VALID,45,VALID,0,
2002-04-06, 02:44:00,VALID,916.825,VALID,0,VALID,98.3243,VALID,0,VALID,20.3309,VALID,45,VALID,0,
2002-04-06, 02:45:00,VALID,916.794,VALID,0,VALID,98.3357,VALID,-0.0169808,VALID,20.318,VALID,45,VALID,0,
2002-04-06, 02:46:00,VALID,916.78,VALID,0,VALID,98.3332,VALID,0,VALID,20.3187,VALID,45,VALID,0,
2002-04-06, 02:47:00,VALID,916.764,VALID,0,VALID,98.3408,VALID,-0.0169808,VALID,20.2986,VALID,45,VALID,0,
2002-04-06, 02:48:00,VALID,916.731,VALID,0,VALID,98.3599,VALID,-0.0169808,VALID,20.2956,VALID,45,VALID,0,
2002-04-06, 02:49:00,VALID,916.702,VALID,0,VALID,98.3484,VALID,0,VALID,20.2991,VALID,45,VALID,0,
2002-04-06, 02:50:00,VALID,916.671,VALID,0,VALID,98.3243,VALID,0.0169808,VALID,20.2792,VALID,45,VALID,0.0752467,
2002-04-06, 02:51:00,VALID,916.646,VALID,0,VALID,98.3167,VALID,0,VALID,20.2732,VALID,45,VALID,0.179265,
2002-04-06, 02:52:00,VALID,916.639,VALID,0,VALID,98.384,VALID,0.0339617,VALID,20.2635,VALID,45,VALID,0.18683,
2002-04-06, 02:53:00,VALID,916.629,VALID,0,VALID,98.4044,VALID,0,VALID,20.2675,VALID,45,VALID,0,
2002-04-06, 02:54:00,VALID,916.63,VALID,0,VALID,98.3968,VALID,0,VALID,20.2506,VALID,46,VALID,0.0435606,
2002-04-06, 02:55:00,VALID,916.637,VALID,0,VALID,98.4069,VALID,0,VALID,20.2407,VALID,115,VALID,0.29375,
2002-04-06, 02:56:00,VALID,916.645,VALID,0,VALID,98.4171,VALID,0.0169808,VALID,20.2374,VALID,183,VALID,0.213471,
2002-04-06, 02:57:00,VALID,916.638,VALID,0,VALID,98.4514,VALID,0,VALID,20.2347,VALID,186,VALID,0.135557,
2002-04-06, 02:58:00,VALID,916.619,VALID,0,VALID,98.4718,VALID,0,VALID,20.2412,VALID,181,VALID,0.0925164,
2002-04-06, 02:59:00,VALID,916.587,VALID,0,VALID,98.487,VALID,0.0169808,VALID,20.2374,VALID,170,VALID,0.0757378,
2002-04-06, 03:00:00,VALID,916.573,VALID,0,VALID,98.4769,VALID,0,VALID,20.2345,VALID,170,VALID,0.00246711,
2002-04-06, 03:01:00,VALID,916.567,VALID,0,VALID,98.5061,VALID,0,VALID,20.2345,VALID,170,VALID,0.000422297,
2002-04-06, 03:02:00,VALID,916.579,VALID,0,VALID,98.5188,VALID,0.0169808,VALID,20.2444,VALID,170,VALID,0.0765165,
2002-04-06, 03:03:00,VALID,916.573,VALID,0,VALID,98.5214,VALID,0.0339617,VALID,20.2439,VALID,170,VALID,0,
2002-04-06, 03:04:00,VALID,916.553,VALID,0,VALID,98.487,VALID,-0.0169808,VALID,20.2342,VALID,170,VALID,0,
2002-04-06, 03:05:00,VALID,916.548,VALID,0,VALID,98.4705,VALID,0.0169808,VALID,20.2253,VALID,167,VALID,0.211143,
2002-04-06, 03:06:00,VALID,916.532,VALID,0,VALID,98.4972,VALID,0.0169808,VALID,20.225,VALID,155,VALID,0.319046,
2002-04-06, 03:07:00,VALID,916.515,VALID,0,VALID,98.5354,VALID,0,VALID,20.2119,VALID,153,VALID,0.363616,
2002-04-06, 03:08:00,VALID,916.495,VALID,0,VALID,98.5366,VALID,0.0169808,VALID,20.2215,VALID,144,VALID,0.273037,
2002-04-06, 03:09:00,VALID,916.479,VALID,0,VALID,98.4044,VALID,0,VALID,20.2024,VALID,66,VALID,0.51965,
2002-04-06, 03:10:00,VALID,916.453,VALID,0,VALID,98.3853,VALID,0,VALID,20.151,VALID,66,VALID,0.557813,
2002-04-06, 03:11:00,VALID,916.43,VALID,0,VALID,98.4578,VALID,0,VALID,20.1542,VALID,70,VALID,0.457559,
2002-04-06, 03:12:00,VALID,916.402,VALID,0,VALID,98.4425,VALID,0.0169808,VALID,20.1403,VALID,70,VALID,0.462627,
2002-04-06, 03:13:00,VALID,916.39,VALID,0,VALID,98.4336,VALID,0,VALID,20.1249,VALID,70,VALID,0.54852,
2002-04-06, 03:14:00,VALID,916.39,VALID,0,VALID,98.4769,VALID,0.0339617,VALID,20.1311,VALID,70,VALID,0.456814,
2002-04-06, 03:15:00,VALID,916.372,VALID,0,VALID,98.5125,VALID,0,VALID,20.1445,VALID,70,VALID,0.455592,
2002-04-06, 03:16:00,VALID,916.353,VALID,0,VALID,98.5633,VALID,0.0169808,VALID,20.1405,VALID,71,VALID,0.423564,
2002-04-06, 03:17:00,VALID,916.342,VALID,0,VALID,98.5595,VALID,0,VALID,20.1602,VALID,75,VALID,0.297564,
2002-04-06, 03:18:00,VALID,916.344,VALID,0,VALID,98.5494,VALID,0.0169808,VALID,20.1438,VALID,75,VALID,0.300576,
2002-04-06, 03:19:00,VALID,916.335,VALID,0,VALID,98.5811,VALID,0.0169808,VALID,20.1572,VALID,79,VALID,0.0958615,
2002-04-06, 03:20:00,VALID,916.344,VALID,0,VALID,98.6078,VALID,0.0509425,VALID,20.1704,VALID,79,VALID,0,
2002-04-06, 03:21:00,VALID,916.36,VALID,0,VALID,98.59,VALID,0.0169808,VALID,20.1694,VALID,79,VALID,0,
2002-04-06, 03:22:00,VALID,916.368,VALID,0,VALID,98.5659,VALID,0.0169808,VALID,20.1666,VALID,79,VALID,0,
2002-04-06, 03:23:00,VALID,916.364,VALID,0,VALID,98.5722,VALID,0,VALID,20.1728,VALID,79,VALID,0,
2002-04-06, 03:24:00,VALID,916.361,VALID,0,VALID,98.5455,VALID,0.0339617,VALID,20.1796,VALID,79,VALID,0,
2002-04-06, 03:25:00,VALID,916.345,VALID,0,VALID,98.5214,VALID,0.0169808,VALID,20.1696,VALID,79,VALID,0,
2002-04-06, 03:26:00,VALID,916.332,VALID,0,VALID,98.4667,VALID,-0.0169808,VALID,20.1507,VALID,79,VALID,0,
2002-04-06, 03:27:00,VALID,916.31,VALID,0,VALID,98.3879,VALID,-0.0849042,VALID,20.1197,VALID,79,VALID,0,
2002-04-06, 03:28:00,VALID,916.29,VALID,0,VALID,98.3599,VALID,-0.101885,VALID,20.0807,VALID,79,VALID,0,
2002-04-06, 03:29:00,VALID,916.295,VALID,0,VALID,98.3853,VALID,-0.101885,VALID,20.0817,VALID,79,VALID,0,
2002-04-06, 03:30:00,VALID,916.302,VALID,0,VALID,98.4108,VALID,-0.101885,VALID,20.0906,VALID,79,VALID,0,
2002-04-06, 03:31:00,VALID,916.308,VALID,0,VALID,98.4247,VALID,-0.101885,VALID,20.1008,VALID,79,VALID,0,
2002-04-06, 03:32:00,VALID,916.311,VALID,0,VALID,98.4591,VALID,-0.101885,VALID,20.1199,VALID,149,VALID,0.136489,
2002-04-06, 03:33:00,VALID,916.317,VALID,0,VALID,98.4298,VALID,-0.0849042,VALID,20.1267,VALID,212,VALID,0.306127,
2002-04-06, 03:34:00,VALID,916.284,VALID,0,VALID,98.4476,VALID,-0.0849042,VALID,20.1197,VALID,200,VALID,0.174409,
2002-04-06, 03:35:00,VALID,916.268,VALID,0,VALID,98.4667,VALID,-0.101885,VALID,20.1364,VALID,197,VALID,0.00904605,
2002-04-06, 03:36:00,VALID,916.245,VALID,0,VALID,98.468,VALID,-0.101885,VALID,20.1455,VALID,197,VALID,0.126267,
2002-04-06, 03:37:00,VALID,916.212,VALID,0,VALID,98.4667,VALID,-0.0679233,VALID,20.1652,VALID,197,VALID,0.0245536,
2002-04-06, 03:38:00,VALID,916.21,VALID,0,VALID,98.44,VALID,-0.101885,VALID,20.1587,VALID,197,VALID,0.187099,
2002-04-06, 03:39:00,VALID,916.204,VALID,0,VALID,98.4196,VALID,-0.101885,VALID,20.1525,VALID,197,VALID,0.205256,
2002-04-06, 03:40:00,VALID,916.229,VALID,0,VALID,98.4324,VALID,-0.0679233,VALID,20.1388,VALID,201,VALID,0.284821,